DLH579 FAOR-EDDM

Flight info

Callsign DLH579
Flight time N/A
Altitude 36000
Route DCT VASUR UZ21 ITROL UQ25 RUDAS UM731 APKUS/N0494F380 UM731 USPOK/N0488F400 UM731 DIR UB730 DJA UA605 BARKA UG362 EBA/N0482F410 UP161 TUC/N0480F400 UA725 OSMAR DCT PIRIX DCT TIPNI DCT SUMIR/N0459F380 DCT NAXAV/N0416F340 DCT SOTOV T101 BETOS BETOS1A
Aircraft A359/H-SDE2E3GHIJ1J3J4J5M1P2RWXYZ/LB1D1

Departure

Time 2026-05-04 06:55
Airport O.R. Tambo International Airport (FAOR)

Arrival

Time N/A
Airport Munich Airport (EDDM)
Time Latitude Longitude Altitude Speed Heading
2026-05-04 06:29 -26.13096 28.23333 5553 ft 0 kts 277°
2026-05-04 06:44 -26.13099 28.23356 5555 ft 4 kts 277°
2026-05-04 06:45 -26.13101 28.23383 5553 ft 2 kts 277°
2026-05-04 06:45 -26.13108 28.23406 5555 ft 4 kts 325°
2026-05-04 06:45 -26.13132 28.23414 5554 ft 4 kts
2026-05-04 06:45 -26.13157 28.23411 5553 ft 4 kts
2026-05-04 06:46 -26.13173 28.23409 5554 ft 0 kts
2026-05-04 06:48 -26.13136 28.23423 5555 ft 4 kts 34°
2026-05-04 06:48 -26.13121 28.23452 5554 ft 5 kts 72°
2026-05-04 06:49 -26.13119 28.23501 5556 ft 8 kts 93°
2026-05-04 06:50 -26.13420 28.23611 5559 ft 10 kts 195°
2026-05-04 06:51 -26.13494 28.23588 5557 ft 12 kts 195°
2026-05-04 06:51 -26.13579 28.23561 5558 ft 13 kts 195°
2026-05-04 06:51 -26.13672 28.23533 5561 ft 14 kts 195°
2026-05-04 06:51 -26.13763 28.23505 5563 ft 13 kts 195°
2026-05-04 06:52 -26.13854 28.23477 5565 ft 14 kts 197°
2026-05-04 06:52 -26.13953 28.23445 5566 ft 15 kts 195°
2026-05-04 06:52 -26.14050 28.23416 5568 ft 14 kts 195°
2026-05-04 06:52 -26.14147 28.23386 5569 ft 15 kts 195°
2026-05-04 06:53 -26.14259 28.23351 5569 ft 18 kts 196°
2026-05-04 06:53 -26.14373 28.23315 5571 ft 16 kts 195°
2026-05-04 06:53 -26.14483 28.23282 5570 ft 17 kts 189°
2026-05-04 06:53 -26.14584 28.23313 5570 ft 14 kts 131°
2026-05-04 06:54 -26.14620 28.23406 5571 ft 13 kts 108°
2026-05-04 06:54 -26.14578 28.23456 5572 ft 9 kts 13°
2026-05-04 06:54 -26.14479 28.23486 5569 ft 33 kts 15°
2026-05-04 06:54 -26.14037 28.23619 5568 ft 98 kts 15°
2026-05-04 06:55 -26.13181 28.23888 5556 ft 156 kts 15°
2026-05-04 06:55 -26.12011 28.24250 5910 ft 177 kts 15°
2026-05-04 06:55 -26.10831 28.24641 6604 ft 180 kts 16°
2026-05-04 06:55 -26.09628 28.25104 7150 ft 182 kts 18°
2026-05-04 06:56 -26.08396 28.25497 7398 ft 187 kts
2026-05-04 06:57 -26.02863 28.16187 8669 ft 265 kts 320°
2026-05-04 06:58 -26.01267 28.15090 8980 ft 274 kts 330°
2026-05-04 06:58 -25.99551 28.14116 9414 ft 280 kts 331°
2026-05-04 06:58 -25.97801 28.13132 9892 ft 283 kts 331°
2026-05-04 06:58 -25.96038 28.12134 10348 ft 286 kts 330°
2026-05-04 06:59 -25.94238 28.11105 10608 ft 297 kts 331°
2026-05-04 06:59 -25.92367 28.10031 10806 ft 309 kts 331°
2026-05-04 06:59 -25.90423 28.08914 11005 ft 320 kts 331°
2026-05-04 06:59 -25.88408 28.07756 11198 ft 332 kts 331°
2026-05-04 07:01 -25.72979 27.98893 13392 ft 368 kts 332°
2026-05-04 07:01 -25.70732 27.97603 13724 ft 369 kts 332°
2026-05-04 07:02 -25.68442 27.96290 14086 ft 372 kts 332°
2026-05-04 07:02 -25.66143 27.94972 14447 ft 373 kts 332°
2026-05-04 07:02 -25.63833 27.93649 14808 ft 374 kts 332°
2026-05-04 07:02 -25.61523 27.92325 15174 ft 375 kts 332°
2026-05-04 07:03 -25.59203 27.90997 15540 ft 376 kts 332°
2026-05-04 07:03 -25.56890 27.89634 15897 ft 377 kts 329°
2026-05-04 07:03 -25.54694 27.88040 16250 ft 378 kts 324°
2026-05-04 07:03 -25.52583 27.86294 16604 ft 379 kts 322°
2026-05-04 07:04 -25.50515 27.84472 16968 ft 381 kts 321°
2026-05-04 07:04 -25.48460 27.82621 17327 ft 382 kts 321°
2026-05-04 07:04 -25.46397 27.80763 17667 ft 383 kts 321°
2026-05-04 07:04 -25.44317 27.78906 18012 ft 385 kts 321°
2026-05-04 07:05 -25.42225 27.77057 18342 ft 386 kts 322°
2026-05-04 07:05 -25.40118 27.75210 18659 ft 387 kts 322°
2026-05-04 07:05 -25.38000 27.73363 18941 ft 388 kts 322°
2026-05-04 07:05 -25.35875 27.71514 19234 ft 389 kts 322°
2026-05-04 07:06 -25.31604 27.67803 19799 ft 392 kts 321°
2026-05-04 07:06 -25.29459 27.65940 20100 ft 393 kts 321°
2026-05-04 07:06 -25.27305 27.64068 20342 ft 395 kts 321°
2026-05-04 07:07 -25.25143 27.62191 20609 ft 396 kts 321°
2026-05-04 07:08 -25.09827 27.48915 22469 ft 404 kts 320°
2026-05-04 07:09 -25.07615 27.47001 22732 ft 405 kts 320°
2026-05-04 07:09 -25.05424 27.45105 22963 ft 406 kts 320°
2026-05-04 07:09 -25.03193 27.43175 23120 ft 409 kts 320°
2026-05-04 07:09 -25.00991 27.41176 23331 ft 411 kts 317°
2026-05-04 07:10 -24.98826 27.39053 23598 ft 411 kts 316°
2026-05-04 07:10 -24.96718 27.36920 23827 ft 412 kts 315°
2026-05-04 07:12 -24.81659 27.21941 25045 ft 423 kts 316°
2026-05-04 07:12 -24.79456 27.19782 25123 ft 426 kts 316°
2026-05-04 07:12 -24.77235 27.17606 25276 ft 428 kts 316°
2026-05-04 07:12 -24.75011 27.15427 25486 ft 428 kts 316°
2026-05-04 07:13 -24.72784 27.13246 25657 ft 429 kts 316°
2026-05-04 07:13 -24.70550 27.11059 25832 ft 431 kts 316°
2026-05-04 07:13 -24.68308 27.08864 26005 ft 432 kts 316°
2026-05-04 07:14 -24.59275 27.00036 26675 ft 437 kts 316°
2026-05-04 07:14 -24.56998 26.97814 26815 ft 439 kts 316°
2026-05-04 07:15 -24.55485 26.96337 26897 ft 440 kts 316°
2026-05-04 07:15 -24.53193 26.94100 27063 ft 441 kts 316°
2026-05-04 07:15 -24.50895 26.91861 27227 ft 442 kts 316°
2026-05-04 07:15 -24.48590 26.89615 27393 ft 444 kts 316°
2026-05-04 07:16 -24.46279 26.87365 27546 ft 445 kts 316°
2026-05-04 07:16 -24.43961 26.85108 27769 ft 445 kts 316°
2026-05-04 07:16 -24.41642 26.82852 27933 ft 446 kts 316°
2026-05-04 07:16 -24.39315 26.80589 28079 ft 448 kts 316°
2026-05-04 07:17 -24.36980 26.78320 28238 ft 449 kts 316°
2026-05-04 07:17 -24.34638 26.76049 28411 ft 450 kts 316°
2026-05-04 07:17 -24.29368 26.72239 28615 ft 459 kts 331°
2026-05-04 07:18 -24.26476 26.70735 28773 ft 461 kts 333°
2026-05-04 07:18 -24.23536 26.69306 28919 ft 463 kts 334°
2026-05-04 07:18 -24.20568 26.67914 29086 ft 464 kts 334°
2026-05-04 07:18 -24.17589 26.66534 29214 ft 466 kts 334°
2026-05-04 07:19 -24.14602 26.65151 29375 ft 467 kts 334°
2026-05-04 07:19 -24.11607 26.63756 29525 ft 468 kts 334°
2026-05-04 07:19 -24.08610 26.62354 29668 ft 470 kts 334°
2026-05-04 07:19 -24.05599 26.60940 29766 ft 472 kts 334°
2026-05-04 07:20 -24.02576 26.59517 29905 ft 474 kts 334°
2026-05-04 07:20 -23.99548 26.58091 30052 ft 475 kts 334°
2026-05-04 07:20 -23.96513 26.56663 30213 ft 476 kts 333°
2026-05-04 07:20 -23.93472 26.55232 30377 ft 476 kts 333°
2026-05-04 07:22 -23.72036 26.45172 31286 ft 482 kts 333°
2026-05-04 07:22 -23.68949 26.43727 31408 ft 483 kts 333°
2026-05-04 07:23 -23.65899 26.42295 31530 ft 484 kts 333°
2026-05-04 07:23 -23.62765 26.40817 31650 ft 485 kts 333°
2026-05-04 07:23 -23.59664 26.39352 31770 ft 486 kts 333°
2026-05-04 07:23 -23.56601 26.37907 31887 ft 487 kts 333°
2026-05-04 07:24 -23.50372 26.34972 32083 ft 489 kts 333°
2026-05-04 07:24 -23.47246 26.33502 32200 ft 490 kts 333°
2026-05-04 07:24 -23.44117 26.32032 32301 ft 490 kts 333°
2026-05-04 07:25 -23.40983 26.30560 32416 ft 491 kts 333°
2026-05-04 07:26 -23.19135 26.20326 33640 ft 486 kts 333°
2026-05-04 07:27 -23.16027 26.18872 33814 ft 486 kts 333°
2026-05-04 07:27 -23.12924 26.17422 33987 ft 485 kts 333°
2026-05-04 07:27 -23.09822 26.15973 34187 ft 485 kts 333°
2026-05-04 07:27 -23.06724 26.14526 34351 ft 484 kts 333°
2026-05-04 07:28 -23.03636 26.13085 34532 ft 483 kts 332°
2026-05-04 07:28 -23.00553 26.11648 34711 ft 481 kts 332°
2026-05-04 07:28 -22.97479 26.10215 34904 ft 480 kts 332°
2026-05-04 07:28 -22.94411 26.08786 35068 ft 479 kts 332°
2026-05-04 07:29 -22.91350 26.07360 35244 ft 478 kts 332°
2026-05-04 07:29 -22.88296 26.05938 35428 ft 477 kts 332°
2026-05-04 07:29 -22.85252 26.04521 35603 ft 476 kts 332°
2026-05-04 07:29 -22.82209 26.03107 35780 ft 475 kts 332°
2026-05-04 07:30 -22.79177 26.01697 35938 ft 474 kts 332°
2026-05-04 07:30 -22.76146 26.00289 36105 ft 474 kts 332°
2026-05-04 07:30 -22.70058 25.97459 36164 ft 479 kts 332°
2026-05-04 07:31 -22.63919 25.94610 36170 ft 480 kts 332°
2026-05-04 07:33 -22.39489 25.83309 36153 ft 478 kts 333°
2026-05-04 07:33 -22.33371 25.80485 36153 ft 478 kts 333°
2026-05-04 07:34 -22.27247 25.77661 36153 ft 478 kts 333°
2026-05-04 07:34 -22.21127 25.74841 36145 ft 478 kts 333°
2026-05-04 07:35 -22.15006 25.72024 36150 ft 479 kts 333°